Other Public Products
Issued by NWS Grand Forks, ND

Home | Current Version | Previous Version | Graphics & Text | Print | Product List | Glossary On
Versions: 1 2 3 4 5 6 7 8 9 10 11 12 13 14 15 16 17 18 19 20 21 22 23 24 25 26 27 28 29 30 31 32 33 34 35 36 37 38 39 40 41 42 43 44 45 46 47 48 49 50
000
FPUS83 KFGF 250110
OPUFGF
PRAIRIE TO PINES WEATHER ROUNDUP
NATIONAL WEATHER SERVICE EASTERN NORTH DAKOTA/GRAND FORKS ND
800 PM CDT FRI OCT 24 2014

 **SATELLITE DATA USED TO AUGMENT SKY COVER AT AUTOMATED STATIONS**
 *****  WEATHER ACROSS EASTERN NORTH DAKOTA  *****

CITY           SKY/WX    TMP DP  RH WIND       PRES   REMARKS
GRAND FORKS    PTCLDY    58  33  39 W9        29.82R
GRAND FORKS AF PTCLDY    56  33  41 W8        29.84R
GRAND CITY NWS   N/A     55 N/A N/A W12         N/A
BUXTON         NOT AVBL
DEVILS LAKE    CLEAR     54  34  47 W13       29.86R
FARGO          MOCLDY    62  34  35 W16       29.86R
WAHPETON ARPT  MOCLDY    64  34  32 NW17      29.87R
$$

 *****  WEATHER ACROSS CENTRAL AND WESTERN NORTH DAKOTA  *****

CITY           SKY/WX    TMP DP  RH WIND       PRES   REMARKS
JAMESTOWN      CLEAR     54  34  46 W12       29.92R
BISMARCK       MOCLDY    57  33  40 W8        29.99R
MINOT          CLEAR     54  27  35 W16       29.93R
MINOT AFB      CLEAR     49  30  48 W12       29.93R
GARRISON         N/A     52  30  43 W10       29.97R
WILLISTON      PTCLDY    44  27  51 W8        30.00R
DICKINSON      PTCLDY    44  29  55 W9        30.02R
HETTINGER      CLOUDY    51  35  54 NW5       30.05S
$$

 *****  OTHER OBSERVATIONS NORTHEAST NORTH DAKOTA  *****

CITY           SKY/WX    TMP DP  RH WIND       PRES   REMARKS
WALHALLA         N/A     55  36  47 W8        29.80R
LANGDON        FAIR      54  32  43 W15       29.82R
CAVALIER       FAIR      57  36  44 W13       29.79R
GRAFTON        FAIR      55  37  50 W8        29.81R
CANDO          FAIR      50  32  50 W12       29.88R
FORT TOTTEN    NOT AVBL
ROLLA          FAIR      54  32  43 W20G25    29.87R
RUGBY          FAIR      48  36  61 W10       29.90R
 ***** THE ABOVE OBSERVATIONS ARE NON NWS ARE NOT QUALITY
        CONTROLLED AND MAY MIS-REPORT RAIN FOR SNOW...
$$

 *****  OTHER OBSERVATIONS SOUTHEAST NORTH DAKOTA *****

CITY           SKY/WX    TMP DP  RH WIND       PRES   REMARKS
COOPERSTOWN    NOT AVBL
VALLEY CITY    FAIR      54  34  47 W12       29.91R
OAKES            N/A     59  39  47 NW9       29.93R
GWINNER        CLEAR     63  37  39 NW10      29.92R
SHEYENNE NWR     N/A     62  34  35 NW8       29.95
BUFFALO        NOT AVBL
WYNDMERE         N/A     63  37  39 NW9         N/A
 ***** THE ABOVE OBSERVATIONS ARE NON NWS ARE NOT QUALITY
       CONTROLLED AND MAY MIS-REPORT RAIN FOR SNOW...
$$

  *****  WEATHER ACROSS NORTHERN MINNESOTA  *****

CITY           SKY/WX    TMP DP  RH WIND       PRES   REMARKS
FLAG ISLAND    PTCLDY    59  37  44 W22G32    29.68R
WARROAD        CLEAR     59  39  47 W14G20    29.73R
ROSEAU         CLEAR     59  37  44 W13G18    29.74R
HALLOCK        CLEAR     55  36  47 W8G16     29.78R
THF RVR FALLS  PTCLDY    59  32  36 W14       29.80R
HALSTAD          N/A     58  27  30 W12         N/A
FOSSTON        MOCLDY    57  30  35 W10       29.82S
BAUDETTE       MOCLDY    61  33  35 W12G23    29.70R
WASKISH        PTCLDY    57  41  54 W14G24    29.74S
CROOKSTON      PTCLDY    55  34  44 W10       29.83R
$$
  *****  WEATHER ACROSS CENTRAL AND WEST MINNESOTA  *****

CITY           SKY/WX    TMP DP  RH WIND       PRES   REMARKS
BEMIDJI        PTCLDY    62  35  35 W18G25    29.79R
PARK RAPIDS    CLOUDY    56  41  57 W10       29.81R
WADENA         CLOUDY    61  43  51 W6        29.83R
DETROIT LAKES  MOCLDY    63  37  39 NW17      29.87R
MOORHEAD       MOCLDY    64  25  22 W13G21    29.87R
FERGUS FALLS   MOCLDY    64  37  36 NW13      29.87R
ELBOW LAKE     FAIR      63  43  47 W9        29.86R
MORRIS MN      MOCLDY    61  43  51 W10       29.86S
STAPLES        CLOUDY    59  39  47 SW6       29.82S
WHEATON        PTCLDY    63  43  48 W7        29.90R
$$
  *****  WEATHER ELSEWHERE ACROSS MINNESOTA  *****

CITY           SKY/WX    TMP DP  RH WIND       PRES   REMARKS
DULUTH         PTCLDY    59  50  72 SW13      29.76F
INTRNTL FALLS  PTCLDY    64  37  36 W14G25    29.66S
ELY            MOCLDY    61  37  41 SW7       29.70S
CLOQUET        FAIR      57  50  77 SW9       29.77F
BRAINERD       CLOUDY    59  39  47 SW6       29.81S
HIBBING        PTCLDY    53  40  61 S3        29.74S
ALEXANDRIA     MOCLDY    61  43  51 W9        29.86R
SAINT CLOUD    MOCLDY    62  44  51 S5        29.83S
MINNEAPOLIS    CLOUDY    62  53  72 S5        29.85S
$$

  *****  WEATHER ACROSS SOUTH DAKOTA  *****

CITY           SKY/WX    TMP DP  RH WIND       PRES   REMARKS
SIOUX FALLS    PTCLDY    57  43  59 S3        29.94R
BROOKINGS      NOT AVBL
WATERTOWN      CLEAR     58  40  51 W10       29.94R
HURON          CLEAR     54  36  50 NW9       29.95R
SISSETON         N/A     63  40  42 NW7       29.89R
ABERDEEN       MOCLDY    65  39  38 NW10      29.94R
MITCHELL         N/A     64  41  42 W5        29.96R
PIERRE         PTCLDY    59  40  49 N8        29.97S
MOBRIDGE       CLOUDY    63  37  38 NW7       29.99R
RAPID CITY     CLEAR     57  37  47 N13       30.07R
$$

  *****  SOME WEATHER IN NEARBY STATES *****

CITY           SKY/WX    TMP DP  RH WIND       PRES   REMARKS
GLASGOW MT     CLEAR     49  27  42 SW3       30.03R
GREAT FALLS MT CLOUDY    50  35  56 SW3       30.06R
CHEYENNE WY    CLEAR     60  27  28 SW9       30.22R
SCOTTSBLUFF NE CLEAR     58  32  37 NW7       30.05R
OMAHA NE       PTCLDY    62  57  83 CALM      29.95R
DES MOINES IA  MOCLDY    60  58  92 S7        29.93R FOG
DAVENPORT IA   CLOUDY    61  57  87 SW8       29.95S
CHICAGO IL     MOCLDY    61  45  55 S7        29.95R
EAU CLAIRE WI  CLOUDY    56  55  97 SW5       29.87S
LA CROSSE WI   CLOUDY    60  56  86 S8        29.89S
$$

  *****  SOME NATIONAL WEATHER *****

CITY           SKY/WX    TMP DP  RH WIND       PRES   REMARKS
LA GUARDIA NY  MOCLDY    57  46  66 S7        29.81R
RALEIGH NC     PTCLDY    53  49  86 CALM      29.99R
ATLANTA GA     PTCLDY    62  42  47 NW7       30.03R
NEW ORLEANS LA CLEAR     69  48  47 N7        30.08R
OKLAHOMA CITY  PTCLDY    70  61  73 S6        30.04R
ALBUQUERQUE NM CLEAR     71  34  25 SE3       30.23S
SALT LAKE CITY CLEAR     65  40  39 W5        30.08F
LOS ANGELES CA CLEAR     71  64  78 W7        29.93S
BOISE ID       CLEAR     59  50  72 W5        29.97R
SEATTLE WA     CLOUDY    56  47  71 N12       29.87F
$$

*** WEATHER ACROSS MANITOBA...SASKATCHEWAN AND ONTARIO ***
                ***ONTARIO***

CITY           SKY/WX    TMP DP  RH WIND       PRES   REMARKS
GERALDTON      MOCLDY    46  45  93 SW14      29.60F
THUNDER BAY    MOCLDY    48  46  93 E2        29.64F
SIOUX LOOKOUT  MOCLDY    54  43  66 SW5       29.55F
TORONTO        MOCLDY    54  41  62 NW9       29.94S
BIG TROUT LK   LGT RAIN  48  46  93 S3        29.35F
PICKLE LAKE    LGT RAIN  55  45  67 SW12G17   29.44F
DRYDEN         PTCLDY    59  41  51 W20G29    29.57F
KENORA         PTCLDY    57  37  47 W18G31    29.65R
$$
                *** MANITOBA***

CITY           SKY/WX    TMP DP  RH WIND       PRES   REMARKS
BRANDON        CLEAR     52  32  46 W22G29    29.81R
DAUPHIN        PTCLDY    50  34  53 W17G24    29.75R
ISLAND LAKE    LGT RAIN  48  46  93 W17G26    29.40R
PILOT MOUND      N/A     52  36  54 W9G17       N/A
THE PAS        CLOUDY    45  34  65 W21G28    29.63R
THOMPSON       LGT RAIN  43  41  93 W10       29.44R
WINNIPEG       CLEAR     54  34  47 W14G21    29.71S
LYNN LAKE      CLOUDY    37  34  87 W16G24    29.43R
CHURCHILL      FOG       37  37 100 E5        29.38F VSB 1/2
GILLAM         LGT RAIN  43  41  93 CALM      29.38S VSB 1/4
$$
                ***SASKATCHEWAN***

CITY           SKY/WX    TMP DP  RH WIND       PRES   REMARKS
ESTEVAN        PTCLDY    46  30  53 W9G17     29.95R
KINDERSLEY     PTCLDY    39  27  60 W9        29.95R
LLOYDMINSTER   PTCLDY    36  25  64 W12       29.88R
PRINCE ALBERT  PTCLDY    45  30  57 W15       29.80R
REGINA         PTCLDY    43  32  65 W10       29.94R



USA.gov is the U.S. government's official web portal to all federal, state and local government web resources and services.